This is the latest recevied weather packets stored in our database for station/object KA6UPU-1. If no packets are shown the sender has not sent any weather packets the latest 1 day(s).
| Time | Temp. | Humidity | Pressure | Rain* | Wind** | Luminosity | Snow |
|---|---|---|---|---|---|---|---|
| 1778030890 | 15.56° C | 74% | 1015 hPa | 0 mm | 0.45 m/s, 293° | - | - |
| 1778030590 | 15.56° C | 73% | 1015 hPa | 0 mm | 2.68 m/s, 286° | - | - |
| 1778030290 | 16.11° C | 74% | 1015.1 hPa | 0 mm | 2.24 m/s, 288° | - | - |
| 1778029989 | 16.11° C | 74% | 1015.2 hPa | 0 mm | 2.24 m/s, 287° | - | - |
| 1778029689 | 16.11° C | 74% | 1015.2 hPa | 0 mm | 2.68 m/s, 295° | - | - |
| 1778028789 | 16.11° C | 74% | 1015.1 hPa | 0 mm | 1.34 m/s, 297° | - | - |
| 1778028190 | 16.11° C | 74% | 1014.9 hPa | 0 mm | 1.79 m/s, 260° | - | - |
| 1778027889 | 16.11° C | 74% | 1014.9 hPa | 0 mm | 1.34 m/s, 290° | - | - |
| 1778027289 | 16.11° C | 74% | 1014.9 hPa | 0 mm | 1.34 m/s, 269° | - | - |
| 1778026689 | 16.67° C | 74% | 1014.9 hPa | 0 mm | 3.13 m/s, 283° | - | - |
| 1778026390 | 16.67° C | 74% | 1014.8 hPa | 0 mm | 2.24 m/s, 292° | - | - |
| 1778025791 | 16.67° C | 75% | 1014.9 hPa | 0 mm | 0.89 m/s, 291° | - | - |
| 1778025489 | 16.67° C | 74% | 1014.9 hPa | 0 mm | 2.68 m/s, 299° | - | - |
| 1778025189 | 16.67° C | 74% | 1014.9 hPa | 0 mm | 1.34 m/s, 298° | - | - |
| 1778024889 | 17.22° C | 74% | 1014.9 hPa | 0 mm | 2.24 m/s, 309° | - | - |
| 1778024590 | 17.22° C | 74% | 1014.9 hPa | 0 mm | 2.24 m/s, 282° | - | - |
| 1778024289 | 17.22° C | 73% | 1014.9 hPa | 0 mm | 1.79 m/s, 259° | - | - |
| 1778023990 | 17.22° C | 73% | 1014.9 hPa | 0 mm | 1.79 m/s, 300° | - | - |
| 1778023689 | 17.22° C | 74% | 1014.9 hPa | 0 mm | 0.45 m/s, 298° | - | - |
| 1778023389 | 17.22° C | 74% | 1014.9 hPa | 0 mm | 1.34 m/s, 296° | - | - |
| 1778023089 | 17.22° C | 73% | 1015 hPa | 0 mm | 1.34 m/s, 296° | - | - |
| 1778022789 | 17.22° C | 73% | 1014.9 hPa | 0 mm | 1.79 m/s, 295° | - | - |
| 1778022489 | 17.22° C | 74% | 1014.9 hPa | 0 mm | 1.34 m/s, 261° | - | - |
| 1778022190 | 16.67° C | 74% | 1015 hPa | 0 mm | 0.45 m/s, 258° | - | - |
| 1778021889 | 16.67° C | 74% | 1015 hPa | 0 mm | 0.89 m/s, 276° | - | - |
* Rain latest hour (hover to see other rain measurements)
** Current wind speed in m/s (hover to see current wind gust speed)